Back to catalog

NADEZHDA 6 DEB

AliveSSO
NORAD 36294·DEBRIS·🇷🇺 Russia

Launched Jun 28, 2000 from Plesetsk Cosmodrome

Loading…

Next Passes (next 24 hours)

TLE

FreshSource: Space-Track

Epoch: Sep 11, 2026, 05:02 UTC

1 36294U 00033E   26254.20986020  .00000670  00000-0  11102-3 0  9997
2 36294  97.8080 232.1145 0014665  52.9829 321.7602 14.73240293687044

Track NADEZHDA 6 DEB in real time with AllMySat

Download on the App Store